[[{"header":{"parameterUnit":"m.s-1","parameterCategory":1,"la1":30.2991,"la2":30.254,"lo1":-89.0895,"lo2":-89.0444,"dy":0.0017,"dx":0.0017,"nx":28,"ny":28,"refTime":"2024-02-18T03:00:00:Z","depth":0,"parameterNumber":2,"parameterNumberName":"U-component_of_WINDS"},"data":[0,0,0,0,0,0,0,0,0,0,0,0,0,0,0,0,0,0,0,0,0,0,0,0,0,0,0,0,0,0,0,0,0,0,0,0,0,0,0,0,0,0,0,0,0,0,0,0,0,0,0,0,0,0,0,0,0,0,2.4815,2.4816,0,2.491,2.4911,2.4912,2.4909,2.4908,2.4907,2.4906,2.5,2.5004,2.5008,0,0,0,0,0,0,0,0,0,0,0,0,0,2.4628,2.4631,2.4815,2.4816,2.4817,2.491,2.4911,2.4912,2.491,2.4908,2.4906,2.4905,2.4999,2.5004,2.5008,0,0,0,0,0,0,0,0,0,0,0,0,0,2.4715,2.4633,2.4814,2.4827,2.4829,2.4909,2.4911,2.4913,2.491,2.4908,2.4906,2.4904,2.4998,2.5003,2.5009,2.5082,0,0,2.5026,2.5028,0,0,0,0,0,0,0,0,2.471,2.4721,2.4824,2.4826,2.4829,2.4896,2.488,2.4969,2.491,2.4879,2.4905,2.4903,2.4967,2.4975,2.4997,2.5087,2.5091,2.5026,2.503,2.5032,2.5034,0,0,0,0,0,0,0,2.4704,2.4717,2.4852,2.4825,2.4828,2.4827,2.4837,2.4897,2.4933,2.4882,2.4882,2.4893,2.4968,2.4992,2.4999,2.5092,2.5026,2.5031,2.5035,2.5037,2.5245,2.5247,0,0,0,0,0,0,2.4695,2.4712,2.4849,2.4855,2.4763,2.4832,2.4843,2.4876,2.4932,2.4939,2.4895,2.4893,2.4983,2.4993,2.5003,2.5091,2.5032,2.5037,2.5041,2.5243,2.5246,2.5248,0,0,0,0,0,0,2.4691,2.4708,2.4845,2.4784,2.4801,2.4837,2.4874,2.4879,2.4903,2.4942,2.4948,2.4913,2.4982,2.4995,2.5062,2.5094,2.504,2.5045,2.524,2.5244,2.5247,2.5268,0,0,0,0,0,0,2.4686,2.4706,2.4735,2.4785,2.4805,2.4904,2.4876,2.4882,2.4913,2.4911,2.496,2.4967,2.4981,2.5054,2.5068,2.5101,2.5049,2.5238,2.5242,2.5246,2.5265,2.5272,2.5278,0,0,0,0,0,2.4679,2.4737,2.4737,2.4753,2.4842,2.4906,2.4917,2.4934,2.4915,2.4944,2.4969,2.4965,2.5089,2.5061,2.5076,2.5112,2.5236,2.5241,2.5245,2.5262,2.5271,2.5278,0,0,0,0,0,0,2.469,2.4744,2.4744,2.482,2.4858,2.4906,2.4942,2.4943,2.4987,2.4983,2.5001,2.5013,2.508,2.5103,2.5071,2.5185,2.516,2.5168,2.5167,2.5176,2.5182,2.5174,2.5054,0,0,0,0,0,2.4701,2.475,2.4794,2.4857,2.4876,2.4906,2.4935,2.4944,2.4985,2.5001,2.5031,2.507,2.5117,2.5148,2.5194,2.5269,2.5279,2.5301,2.5307,2.5313,2.5319,2.5358,2.5368,2.5264,2.5264,2.5264,0,0,2.4724,2.476,2.479,2.486,2.4891,2.494,2.492,2.4973,2.5009,2.5009,2.5074,2.5098,2.5142,2.5213,2.5246,2.5234,2.535,2.5319,2.5323,2.5326,2.5364,2.5374,2.5383,2.5267,2.5267,2.5266,0,0,2.4791,2.4824,2.4879,2.4911,2.4959,2.4978,2.4991,2.5039,2.5054,2.5121,2.5121,2.5164,2.5246,2.5277,2.5304,2.5383,2.538,2.5398,2.5431,2.5469,2.5477,2.5485,2.5511,2.552,2.5404,2.5404,2.5404,0,2.4814,2.4889,2.4907,2.496,2.499,2.4994,2.5048,2.5078,2.5138,2.5158,2.5145,2.5247,2.5278,2.5355,2.5374,2.5397,2.5411,2.5391,2.5475,2.5482,2.5489,2.5514,2.5524,2.5406,2.5406,2.5405,2.5405,0,2.4913,2.4965,2.5003,2.5061,2.5096,2.515,2.5175,2.5208,2.5215,2.5235,2.5302,2.5339,2.5391,2.5411,2.5418,2.549,2.5481,2.5471,2.5446,2.5501,2.5524,2.5534,2.5408,2.5408,2.5407,2.5407,0,0,2.4988,2.5056,2.5069,2.5095,2.5148,2.5188,2.5242,2.5294,2.5321,2.5363,2.5407,2.5476,2.5467,2.5497,2.5508,2.5542,2.56,2.5528,2.553,2.5538,2.5679,2.5684,2.5695,2.56,2.5601,2.5603,2.5674,0,2.5058,2.5154,2.5172,2.5255,2.5302,2.5306,2.5352,2.5389,2.541,2.5452,2.5475,2.5523,2.5509,2.5527,2.5561,2.5586,2.5628,2.5581,2.5639,2.564,2.5625,2.5707,2.5713,2.5778,2.5684,2.5685,2.5687,0,2.5153,2.5198,2.5285,2.5331,2.5351,2.5393,2.5441,2.5483,2.5524,2.5537,2.5571,2.5578,2.5632,2.5606,2.568,2.5648,2.5673,2.5689,2.5691,2.5695,2.5665,2.5711,2.58,2.5809,2.5702,2.5701,2.5699,0,2.5196,2.5278,2.534,2.5363,2.5418,2.5447,2.5471,2.5512,2.5541,2.5584,2.5604,2.5652,2.5678,2.5715,2.5734,2.5714,2.5806,2.5782,2.5817,2.5816,2.5834,2.5832,2.5925,2.5854,2.5854,2.5854,2.5854,0,2.5272,2.5325,2.536,2.5398,2.5457,2.5477,2.5534,2.5558,2.5594,2.5636,2.5643,2.5682,2.5706,2.5749,2.5764,2.5822,2.5835,2.5845,2.5848,2.5843,2.5841,2.5858,2.5853,2.5856,2.5856,2.5855,2.5855,0,2.5329,2.5355,2.5423,2.547,2.5483,2.5524,2.5564,2.5601,2.5622,2.5675,2.5689,2.5722,2.5772,2.5795,2.5857,2.5868,2.5933,2.5934,2.5919,2.5919,2.5951,2.5947,2.6056,2.6071,2.5992,2.5993,2.5993,0,2.5374,2.5415,2.5467,2.5496,2.5521,2.5568,2.5598,2.562,2.5652,2.5702,2.5732,2.5783,2.5824,2.5904,2.5932,2.5979,2.598,2.6016,2.5987,2.598,2.5978,2.5974,2.5978,2.602,2.602,2.6021,2.6021,0,2.5451,2.5462,2.5507,2.5556,2.5592,2.5632,2.567,2.5693,2.5721,2.5756,2.5808,2.584,2.5903,2.5953,2.6002,2.6026,2.6028,2.6031,2.6041,2.6034,2.6023,2.6027,2.593,2.6027,2.6027,2.6026,2.6026,2.6026,2.5502,2.5538,2.558,2.5629,2.566,2.5696,2.5733,2.5759,2.5802,2.5856,2.5866,2.592,2.596,2.6026,2.6052,2.6094,2.6086,2.6101,2.6104,2.6107,2.6108,2.6018,2.6104,2.6104,2.6103,2.6103,2.6103,0,2.5577,2.5605,2.565,2.5704,2.5742,2.5742,2.5785,2.5817,2.5864,2.5902,2.5943,2.6001,2.6049,2.6082,2.6131,2.6158,2.616,2.6169,2.6166,2.6171,2.6114,2.6099,2.6167,2.6167,2.6167,2.6167,2.6167,2.6167,2.5621,2.5681,2.5697,2.5772,2.5799,2.5852,2.5876,2.5909,2.5939,2.6004,2.6044,2.6066,2.6101,2.6152,2.6196,2.6204,2.6221,2.623,2.6238,2.6183,2.6176,2.6169,2.6155,2.6234,2.6234,2.6292,2.6293,2.6293]},{"header":{"parameterUnit":"m.s-1","parameterCategory":1,"la1":30.2991,"la2":30.254,"lo1":-89.0895,"lo2":-89.0444,"dy":0.0017,"dx":0.0017,"nx":28,"ny":28,"refTime":"2024-02-18T03:00:00:Z","depth":0,"parameterNumber":3,"parameterNumberName":"V-component_of_WINDS"},"data":[0,0,0,0,0,0,0,0,0,0,0,0,0,0,0,0,0,0,0,0,0,0,0,0,0,0,0,0,0,0,0,0,0,0,0,0,0,0,0,0,0,0,0,0,0,0,0,0,0,0,0,0,0,0,0,0,0,0,0.7992,0.7992,0,0.7955,0.7954,0.7954,0.7926,0.7926,0.7926,0.7926,0.7885,0.7885,0.7884,0,0,0,0,0,0,0,0,0,0,0,0,0,0.8038,0.8037,0.7992,0.7992,0.7992,0.7955,0.7954,0.7954,0.7926,0.7926,0.7926,0.7926,0.7886,0.7885,0.7884,0,0,0,0,0,0,0,0,0,0,0,0,0,0.8011,0.8037,0.7993,0.7973,0.7971,0.7955,0.7954,0.7954,0.7926,0.7926,0.7926,0.7925,0.7886,0.7885,0.7884,0.7883,0,0,0.788,0.7879,0,0,0,0,0,0,0,0,0.8012,0.8009,0.7977,0.7975,0.7972,0.7945,0.7956,0.793,0.7927,0.7943,0.7926,0.7925,0.7905,0.7903,0.7896,0.7881,0.7879,0.788,0.7879,0.7878,0.7878,0,0,0,0,0,0,0,0.8014,0.8011,0.7977,0.7976,0.7974,0.7966,0.7962,0.7951,0.7927,0.7942,0.794,0.7936,0.7904,0.7897,0.7895,0.7878,0.788,0.7878,0.7878,0.7877,0.7858,0.7858,0,0,0,0,0,0,0.802,0.8012,0.7979,0.7976,0.7992,0.7965,0.7961,0.7954,0.7927,0.7922,0.7936,0.7935,0.79,0.7897,0.7894,0.7889,0.7878,0.7877,0.7876,0.7858,0.7858,0.7858,0,0,0,0,0,0,0.8021,0.8017,0.798,0.7994,0.7989,0.7965,0.7958,0.7954,0.7947,0.7923,0.7918,0.7934,0.7899,0.7895,0.7885,0.7888,0.7876,0.7875,0.7857,0.7858,0.7858,0.7882,0,0,0,0,0,0,0.8022,0.8017,0.8018,0.7994,0.7988,0.7974,0.7958,0.7953,0.7945,0.7943,0.7919,0.7915,0.7899,0.7887,0.7884,0.7886,0.7874,0.7857,0.7858,0.7858,0.7881,0.7883,0.7885,0,0,0,0,0,0.8024,0.8026,0.8018,0.8014,0.7988,0.7974,0.797,0.7952,0.7945,0.7945,0.7929,0.7916,0.7888,0.7886,0.7882,0.7884,0.7857,0.7857,0.7858,0.788,0.7883,0.7885,0,0,0,0,0,0,0.805,0.8022,0.8013,0.8008,0.7993,0.7969,0.7968,0.7956,0.7943,0.7941,0.7918,0.7913,0.7905,0.7893,0.7892,0.788,0.7871,0.787,0.7889,0.7891,0.7893,0.7896,0.7873,0,0,0,0,0,0.8055,0.8047,0.8023,0.802,0.8014,0.7992,0.7985,0.7973,0.7956,0.795,0.7933,0.7918,0.7905,0.7897,0.7885,0.7879,0.7872,0.7878,0.788,0.7881,0.7882,0.7876,0.7877,0.786,0.786,0.786,0,0,0.8066,0.805,0.8046,0.8025,0.8013,0.8003,0.7987,0.7979,0.7971,0.7948,0.7938,0.7925,0.7906,0.7897,0.7893,0.7887,0.7885,0.7882,0.7884,0.7883,0.7877,0.7878,0.788,0.7861,0.7861,0.786,0,0,0.8081,0.8068,0.8064,0.8051,0.8032,0.8018,0.8017,0.7994,0.7984,0.7973,0.7956,0.7946,0.7925,0.7912,0.7902,0.791,0.7897,0.7906,0.7917,0.7912,0.7913,0.7914,0.7916,0.7917,0.7906,0.7906,0.7906,0,0.8096,0.8082,0.8063,0.8055,0.8046,0.8025,0.802,0.8008,0.7986,0.798,0.7974,0.7946,0.7932,0.7919,0.7921,0.7914,0.7911,0.7909,0.7915,0.7916,0.7916,0.7917,0.7918,0.7908,0.7907,0.7907,0.7907,0,0.8102,0.8092,0.8091,0.807,0.8061,0.8054,0.8033,0.8026,0.8013,0.7999,0.7987,0.7968,0.7951,0.7947,0.7935,0.7932,0.7929,0.7919,0.7909,0.7919,0.792,0.792,0.7909,0.7909,0.7908,0.7908,0,0,0.8133,0.81,0.81,0.809,0.8066,0.8058,0.805,0.8033,0.8026,0.8011,0.8003,0.7985,0.7975,0.7964,0.795,0.7946,0.7951,0.7936,0.7935,0.7939,0.7945,0.7952,0.7953,0.7942,0.7942,0.7942,0.7946,0,0.8143,0.8128,0.811,0.8101,0.8091,0.807,0.8063,0.8047,0.8033,0.8021,0.8005,0.7993,0.7982,0.7975,0.7969,0.7952,0.7952,0.7951,0.7933,0.7933,0.7938,0.7954,0.7962,0.7967,0.7947,0.7947,0.7947,0,0.8154,0.8139,0.8129,0.8106,0.8101,0.8095,0.8077,0.8067,0.8047,0.8037,0.8024,0.8009,0.7998,0.7988,0.7972,0.7971,0.7963,0.7953,0.7952,0.795,0.794,0.7951,0.7968,0.7968,0.7947,0.7947,0.7947,0,0.8176,0.8154,0.8145,0.8137,0.8109,0.8105,0.8093,0.8074,0.8064,0.8048,0.8041,0.8024,0.8015,0.8001,0.798,0.7976,0.7965,0.7955,0.7955,0.7956,0.7954,0.7954,0.7969,0.7949,0.7949,0.7949,0.7949,0,0.8189,0.8184,0.8155,0.8149,0.8142,0.812,0.8113,0.8099,0.8081,0.8072,0.8052,0.8043,0.8017,0.8004,0.7988,0.7976,0.7972,0.7962,0.7958,0.7964,0.7965,0.7958,0.7956,0.7949,0.7949,0.7949,0.7949,0,0.8213,0.8194,0.8182,0.8157,0.815,0.8146,0.8123,0.8116,0.81,0.8088,0.8084,0.8059,0.8043,0.8021,0.7998,0.7987,0.7976,0.797,0.7983,0.798,0.7982,0.7982,0.7992,0.7992,0.7973,0.7973,0.7973,0,0.8223,0.8218,0.8192,0.8184,0.8173,0.8161,0.8151,0.8129,0.8119,0.8096,0.8091,0.8074,0.8059,0.8034,0.8013,0.7994,0.7987,0.7992,0.7984,0.799,0.7986,0.7986,0.7985,0.7994,0.7994,0.7994,0.7995,0,0.8242,0.8232,0.8219,0.8202,0.8191,0.8177,0.8161,0.8156,0.813,0.8119,0.8103,0.8091,0.8068,0.805,0.8029,0.8015,0.8,0.7997,0.7996,0.8002,0.8009,0.8004,0.7988,0.7997,0.7997,0.7997,0.7996,0.7996,0.8258,0.8253,0.8233,0.8219,0.8205,0.819,0.8182,0.8165,0.8151,0.8131,0.8118,0.8102,0.8081,0.8051,0.8037,0.8023,0.8017,0.8016,0.8016,0.8016,0.8017,0.8012,0.8019,0.8019,0.8019,0.8019,0.8019,0,0.8275,0.8262,0.8249,0.8228,0.8216,0.8204,0.8185,0.8176,0.8162,0.8144,0.8129,0.8109,0.8092,0.8069,0.8049,0.8042,0.8035,0.8037,0.8038,0.8034,0.8024,0.8027,0.8044,0.8044,0.8044,0.8044,0.8044,0.8044,0.8283,0.8272,0.826,0.8242,0.8227,0.8212,0.8202,0.8188,0.8174,0.8153,0.8138,0.8123,0.8103,0.8081,0.8064,0.8057,0.805,0.8055,0.8047,0.8037,0.8035,0.8033,0.8035,0.8054,0.8054,0.8058,0.8058,0.8058]}]]